User: anonymous   Login
Location: Unspecified
(0.0000°N, 0.0000°E)
Time: 01:08:58
(UTC+00:00)
Language:

STARLINK-34981 - Orbit

View from above orbital plane
View from above orbital plane
View from above satellite
View from above satellite

Ground track
Ground track

The orbit is defined by the following mean orbital elements,

1 65198U          26145.32793308 +.00000000 +00000-0 +46263-3 0 00009
2 65198  53.1563 159.6158 0000979  77.1196 282.9914 15.30202339    08
Epoch (UTC): 25 May 2026 07:52:13
Eccentricity: 0.0000979
inclination: 53.1563°
perigee height: 475 km
apogee height: 476 km
right ascension of ascending node: 159.6158°
argument of perigee: 77.1196°
revolutions per day: 15.30202339
mean anomaly at epoch: 282.9914°

The dashed part of the orbit path shows where the satellite is in the earth's shadow,  

DLR